Hourly Data Report for August 24, 2021

FLIN FLON
MANITOBA
Current Station Operator: ECCC - MSC

54°41'00.000" N
101°41'00.000" W
303.90 m
5050919
71954
WFO

Download Data

Hourly Data (August 2021)
Hourly Data Report for August 24, 2021
TIME
LST
Temp Definition
°C
Dew Point Definition
°C
Rel Hum Definition
%
Precip. Amount Definition
mm

Wind Dir Definition
10's deg

Wind Spd Definition
km/h
Visibility Definition
km
Stn Press Definition
kPa
Hmdx Definition


Wind Chill Definition


Weather Definition


00:00 12.0 7.1 72 0.0 9 8   98.16     LegendNANA
01:00 11.7 7.1 73 0.0 9 12   98.06     LegendNANA
02:00 11.5 7.1 74 0.0 8 4   98.16     LegendNANA
03:00 11.0 7.6 79 0.0 6 10   98.16     LegendNANA
04:00 10.7 7.8 82 0.1 8 10   98.13     LegendNANA
05:00 10.4 7.6 83 0.1 8 9   98.10     LegendNANA
06:00 10.2 7.8 85 0.0 7 7   98.14     LegendNANA
07:00 10.0 7.7 86 0.0 8 10   98.18     LegendNANA
08:00 10.3 7.7 84 0.0 7 13   98.15     LegendNANA
09:00 11.0 7.8 80 0.0 7 11   98.17     LegendNANA
10:00 11.8 7.7 76 0.0 6 10   98.17     LegendNANA
11:00 12.1 7.4 73 0.0 9 8   98.20     LegendNANA
12:00 11.9 8.2 78 0.0 7 9   98.20     LegendNANA
13:00 12.9 7.4 69 0.0 9 5   98.17     LegendNANA
14:00 13.4 7.0 65 0.0 7 9   98.14     LegendNANA
15:00 13.9 6.3 60 0.0 6 6   98.15     LegendNANA
16:00 13.8 6.3 61 0.0 5 7   98.12     LegendNANA
17:00 13.8 6.0 59 0.0 5 5   98.12     LegendNANA
18:00 13.3 5.9 61 0.0 5 6   98.12     LegendNANA
19:00 13.0 6.1 63 0.0 1 5   98.14     LegendNANA
20:00 11.8 6.1 68 0.0 35 4   98.17     LegendNANA
21:00 9.9 6.2 78 0.0 33 8   98.21     LegendNANA
22:00 9.5 5.3 75 0.0 34 7   98.25     LegendNANA
23:00 9.3 5.8 79 0.0 34 6   98.27     LegendNANA

Notes on Data Quality.

Legend

  • E = Estimated
  • M = Missing
  • NA = Not Available*
  • [empty] = Indicates an unobserved value
Date modified: